Rolla, ND

8:05 PM CST on February 21, 2017 (GMT -0600)
Rolla

Weather History for K06D - November, 2012

Change the Weather History Date:

Wednesday, November 14, 2012

  Actual Average (KRUG) Record (KRUG)
Temperature  
Mean Temperature 21 °F -  
Max Temperature 32 °F 35 °F 65 °F (1953)
Min Temperature 10 °F 19 °F -10 °F (1959)
Degree Days  
Heating Degree Days 44    
Moisture  
Dew Point 22 °F    
Average Humidity 99    
Maximum Humidity 100    
Minimum Humidity 86    
Precipitation  
Precipitation 0.00 in - - ()
Sea Level Pressure  
Sea Level Pressure 30.01 in    
Wind  
Wind Speed 9 mph (SW)    
Max Wind Speed 21 mph    
Max Gust Speed -    
Visibility 6 miles    
Events Fog , Rain    
Averages and records for this station are not official NWS values.
T = Trace of Precipitation, MM = Missing Value Source: NWS Daily Summary

Daily Weather History Graph

Daily Weather History Graph

Search for Another Location

Airport or City:

Trip Planner

Search our weather history database for the weather conditions in past years. The results will help you decide how hot, cold, wet, or windy it might be!

Date:

Astronomy

Nov. 14, 2012 Rise Set
Actual Time 7:46 AM CST 4:58 PM CST
Civil Twilight 7:12 AM CST 5:33 PM CST
Nautical Twilight 6:33 AM CST 6:11 PM CST
Astronomical Twilight 5:56 AM CST 6:48 PM CST
Moon 8:43 AM CST (11/14) 5:43 PM CST (11/14)
Length of Visible Light 10h 20m
Length of Day
9h 11m
New Moon, 1% of the Moon is Illuminated
Nov 14
New Moon
Nov 20
First Quarter
Nov 28
Full
Dec 6
Last Quarter
Dec 13
New

Hourly Weather History & Observations

Time (CST) Temp. Windchill Dew Point Humidity Pressure Visibility Wind Dir Wind Speed Gust Speed Precip Events Conditions
12:15 AM 10.4 °F 0.8 °F 8.6 °F 92% 30.15 in 10.0 mi SSW 5.8 mph - N/A   Overcast
12:35 AM 12.2 °F - 12.2 °F 100% 30.15 in 10.0 mi Calm Calm - N/A   Overcast
12:55 AM 12.2 °F - 10.4 °F 92% 30.14 in 10.0 mi Calm Calm - N/A   Overcast
1:15 AM 14.0 °F - 14.0 °F 100% 30.14 in 10.0 mi Calm Calm - N/A   Overcast
1:35 AM 14.0 °F 6.5 °F 14.0 °F 100% 30.13 in 10.0 mi SSE 4.6 mph - N/A   Overcast
1:55 AM 12.2 °F - 12.2 °F 100% 30.13 in 10.0 mi Calm Calm - N/A   Overcast
2:15 AM 10.4 °F 4.0 °F 10.4 °F 100% 30.13 in 9.0 mi SSE 3.5 mph - N/A   Overcast
2:35 AM 12.2 °F 4.3 °F 12.2 °F 100% 30.12 in 10.0 mi South 4.6 mph - N/A   Overcast
2:55 AM 14.0 °F 5.1 °F 14.0 °F 100% 30.12 in 5.0 mi South 5.8 mph - N/A   Overcast
3:15 AM 14.0 °F 6.5 °F 14.0 °F 100% 30.12 in 1.0 mi SSW 4.6 mph - N/A   Overcast
3:35 AM 14.0 °F 8.2 °F 14.0 °F 100% 30.12 in 0.2 mi South 3.5 mph - N/A Fog Light Freezing Fog
3:55 AM 14.0 °F 3.9 °F 14.0 °F 100% 30.11 in 0.2 mi South 6.9 mph - N/A Fog Light Freezing Fog
4:15 AM 14.0 °F 2.0 °F 14.0 °F 100% 30.10 in 0.2 mi South 9.2 mph - N/A Fog Light Freezing Fog
4:35 AM 14.0 °F 3.9 °F 14.0 °F 100% 30.10 in 0.2 mi South 6.9 mph - N/A Fog Light Freezing Fog
4:55 AM 14.0 °F 5.1 °F 14.0 °F 100% 30.09 in 0.2 mi South 5.8 mph - N/A Fog Light Freezing Fog
5:15 AM 14.0 °F 2.9 °F 12.2 °F 93% 30.09 in 0.2 mi South 8.1 mph - N/A Fog Light Freezing Fog
5:35 AM 14.0 °F 0.5 °F 14.0 °F 100% 30.08 in 0.2 mi SSW 11.5 mph - N/A Fog Light Freezing Fog
5:55 AM 14.0 °F -0.8 °F 14.0 °F 100% 30.08 in 0.2 mi SSW 13.8 mph - N/A Fog Light Freezing Fog
6:15 AM 15.8 °F 1.4 °F 15.8 °F 100% 30.07 in 0.2 mi SSW 13.8 mph - N/A Fog Light Freezing Fog
6:35 AM 14.0 °F -0.2 °F 14.0 °F 100% 30.06 in 0.2 mi SSW 12.7 mph - N/A Fog Light Freezing Fog
6:55 AM 14.0 °F -0.2 °F 14.0 °F 100% 30.06 in 0.2 mi SSW 12.7 mph - N/A Fog Light Freezing Fog
7:15 AM 14.0 °F 2.0 °F 14.0 °F 100% 30.06 in 0.2 mi SSW 9.2 mph - N/A Fog Light Freezing Fog
7:35 AM 15.8 °F 2.1 °F 15.8 °F 100% 30.05 in 0.2 mi SSW 12.7 mph - N/A Fog Light Freezing Fog
7:55 AM 15.8 °F 2.7 °F 15.8 °F 100% 30.05 in 0.2 mi SSW 11.5 mph - N/A Fog Light Freezing Fog
8:15 AM 15.8 °F 2.7 °F 15.8 °F 100% 30.05 in 0.2 mi SSW 11.5 mph - N/A Fog Light Freezing Fog
8:35 AM 15.8 °F 2.1 °F 15.8 °F 100% 30.05 in 0.2 mi SSW 12.7 mph - N/A Fog Light Freezing Fog
8:55 AM 17.6 °F 4.3 °F 17.6 °F 100% 30.05 in 0.2 mi SSW 12.7 mph - N/A Fog Light Freezing Fog
9:15 AM 17.6 °F - 17.6 °F 100% 30.05 in 0.2 mi North - - N/A Fog Light Freezing Fog
9:35 AM 17.6 °F - 17.6 °F 100% 30.04 in 0.2 mi North - - N/A Fog Light Freezing Fog
9:55 AM 17.6 °F 2.7 °F 17.6 °F 100% 30.04 in 0.2 mi South 16.1 mph - N/A Fog Light Freezing Fog
10:15 AM 17.6 °F 2.7 °F 17.6 °F 100% 30.03 in 0.2 mi SSW 16.1 mph - N/A Fog Light Freezing Fog
10:35 AM 19.4 °F 5.0 °F 19.4 °F 100% 30.03 in 0.2 mi SSW 16.1 mph - N/A Fog Light Freezing Fog
10:55 AM 19.4 °F 6.0 °F 19.4 °F 100% 30.02 in 0.2 mi SSW 13.8 mph - N/A Fog Light Freezing Fog
11:15 AM 21.2 °F 10.1 °F 21.2 °F 100% 30.02 in 0.2 mi SSW 10.4 mph - N/A Fog Light Freezing Fog
11:35 AM 23.0 °F 9.6 °F 23.0 °F 100% 30.01 in 0.8 mi SSW 16.1 mph - N/A   Overcast
11:55 AM 24.8 °F 11.9 °F 24.8 °F 100% 30.00 in 3.0 mi SSW 16.1 mph - N/A   Mostly Cloudy
12:15 PM 24.8 °F 11.9 °F 24.8 °F 100% 29.99 in 5.0 mi SSW 16.1 mph - N/A   Partly Cloudy
12:35 PM 26.6 °F 14.7 °F 26.6 °F 100% 29.98 in 10.0 mi SSW 15.0 mph - N/A Rain Light Freezing Rain
12:55 PM 26.6 °F 13.8 °F 26.6 °F 100% 29.97 in 10.0 mi SSW 17.3 mph - N/A   Clear
1:15 PM 26.6 °F 15.2 °F 26.6 °F 100% 29.97 in 10.0 mi SW 13.8 mph - N/A   Clear
1:35 PM 28.4 °F 18.0 °F 28.4 °F 100% 29.96 in 10.0 mi SW 12.7 mph - N/A   Clear
1:55 PM 28.4 °F 18.0 °F 28.4 °F 100% 29.96 in 10.0 mi SW 12.7 mph - N/A   Clear
2:15 PM 26.6 °F 14.3 °F 26.6 °F 100% 29.95 in 10.0 mi SW 16.1 mph - N/A   Clear
2:35 PM 26.6 °F 15.2 °F 26.6 °F 100% 29.94 in 10.0 mi SW 13.8 mph - N/A   Clear
2:55 PM 28.4 °F 18.0 °F 28.4 °F 100% 29.94 in 10.0 mi SW 12.7 mph - N/A   Clear
3:15 PM 32.0 °F 21.6 °F 32.0 °F 100% 29.94 in 10.0 mi SW 15.0 mph - N/A   Scattered Clouds
3:35 PM 32.0 °F 21.2 °F 32.0 °F 100% 29.93 in 10.0 mi SW 16.1 mph - N/A   Mostly Cloudy
3:55 PM 32.0 °F 20.8 °F 30.2 °F 93% 29.93 in 10.0 mi SW 17.3 mph - N/A   Mostly Cloudy
4:15 PM 32.0 °F 21.2 °F 28.4 °F 87% 29.93 in 10.0 mi WSW 16.1 mph - N/A   Scattered Clouds
4:35 PM 30.2 °F 18.1 °F 28.4 °F 93% 29.93 in 10.0 mi SW 18.4 mph - N/A   Scattered Clouds
4:55 PM 28.4 °F 16.6 °F 28.4 °F 100% 29.93 in 10.0 mi SW 16.1 mph - N/A   Partly Cloudy
5:15 PM 28.4 °F 16.2 °F 28.4 °F 100% 29.93 in 10.0 mi WSW 17.3 mph - N/A   Clear
5:35 PM 28.4 °F 16.2 °F 28.4 °F 100% 29.93 in 10.0 mi SW 17.3 mph - N/A   Clear
5:55 PM 28.4 °F 16.2 °F 28.4 °F 100% 29.93 in 10.0 mi SW 17.3 mph - N/A   Clear
6:15 PM 28.4 °F 16.2 °F 28.4 °F 100% 29.93 in 10.0 mi SW 17.3 mph - N/A   Clear
6:35 PM 28.4 °F 16.6 °F 28.4 °F 100% 29.93 in 10.0 mi SW 16.1 mph - N/A   Clear
6:55 PM 28.4 °F 17.0 °F 28.4 °F 100% 29.94 in 10.0 mi SW 15.0 mph - N/A   Clear
7:15 PM 28.4 °F 17.0 °F 28.4 °F 100% 29.93 in 10.0 mi SW 15.0 mph - N/A   Clear
7:35 PM 28.4 °F 17.0 °F 28.4 °F 100% 29.94 in 10.0 mi SW 15.0 mph - N/A   Clear
7:55 PM 28.4 °F 18.0 °F 28.4 °F 100% 29.94 in 10.0 mi SW 12.7 mph - N/A   Clear
8:15 PM 28.4 °F 17.0 °F 28.4 °F 100% 29.93 in 10.0 mi SW 15.0 mph - N/A   Clear
8:35 PM 28.4 °F 16.6 °F 28.4 °F 100% 29.93 in 10.0 mi WSW 16.1 mph - N/A   Clear
8:55 PM 28.4 °F 16.2 °F 28.4 °F 100% 29.94 in 10.0 mi WSW 17.3 mph - N/A   Clear
9:15 PM 28.4 °F 16.2 °F 28.4 °F 100% 29.94 in 10.0 mi WSW 17.3 mph - N/A   Clear
9:35 PM 28.4 °F 17.0 °F 28.4 °F 100% 29.94 in 10.0 mi WSW 15.0 mph - N/A   Clear
9:55 PM 26.6 °F 15.7 °F 26.6 °F 100% 29.95 in 10.0 mi WSW 12.7 mph - N/A   Clear
10:15 PM 28.4 °F 19.7 °F 26.6 °F 93% 29.96 in 10.0 mi West 9.2 mph - N/A   Clear
10:35 PM 28.4 °F 21.2 °F 26.6 °F 93% 29.97 in 10.0 mi WNW 6.9 mph - N/A   Clear
10:55 PM 26.6 °F 15.7 °F 26.6 °F 100% 29.98 in 10.0 mi WNW 12.7 mph - N/A   Clear
11:15 PM 28.4 °F 16.6 °F 24.8 °F 86% 29.98 in 10.0 mi WNW 16.1 mph - N/A   Clear
11:35 PM 28.4 °F 15.8 °F 24.8 °F 86% 29.99 in 10.0 mi NW 18.4 mph - N/A   Clear
11:55 PM 28.4 °F 15.1 °F 24.8 °F 86% 30.00 in 10.0 mi NW 20.7 mph - N/A   Clear